Flag for Spain Weather past 2 weeks in Córdoba, Spain

Now
54 °F

Clear.


Feels Like: 53 °F
Forecast: 48 / 84 °F
Wind: 3 mph from Southeast

Location: Moron De La Frontera Airport

Current Time: Mar 29, 2015 at 3:59:56 AM

Latest Report: Mar 29, 2015 at 3:00 AM


Visibility: 10 mi

Pressure: 30.30 "Hg

Humidity: 88%

Dew point: 50 °F

Location of CórdobaLocation

Historic Weather in Córdoba — Graph

°F

Córdoba temperature yesterday

Maximum temperature yesterday: 82 °F (at 5:00 PM)
Minimum temperature yesterday: 46 °F (at 7:00 AM)
Average temperature yesterday: 65 °F

Past Weeks' High & Low Weather Summary

 TemperatureHumidityPressure
High82 °F (Mar 28, 5:00 PM)100% (Mar 16, 8:00 AM)30.36 "Hg (Mar 16, 8:00 AM)
Low39 °F (Mar 15, 3:00 AM)28% (Mar 15, 6:00 PM)29.59 "Hg (Mar 24, 4:00 AM)
Average55 °F76%29.93 "Hg
* Reported Mar 14 2:00 AM — Mar 29 3:00 AM, Córdoba, Weather by CustomWeather, © 2015

Note: Actual official high and low records may vary slightly from our data, if they occured in-between our weather recording intervals... More about our weather records

Advertising

Córdoba weather history for previous 24 hours

 ConditionsComfort  
Time TempWeatherWind HumidityBarometerVisibility
3:00 AM
Sun, Mar 29
54 °FClear.3 mph88%30.30 "Hg10 mi
1:00 AM57 °FClear.2 mph82%30.30 "Hg10 mi
12:00 AM59 °FClear.2 mph77%30.30 "Hg10 mi
11:00 PM
Sat, Mar 28
61 °FClear.2 mph77%30.30 "Hg10 mi
10:00 PM64 °FPassing clouds.5 mph73%30.30 "HgN/A
9:00 PM66 °FClear.6 mph73%30.30 "Hg10 mi
8:00 PM73 °FClear.5 mph57%30.27 "Hg10 mi
7:00 PM79 °FSunny.2 mph48%30.27 "Hg10 mi
6:00 PM82 °FSunny.2 mph42%30.27 "Hg10 mi
5:00 PM82 °FSunny.1 mph35%30.27 "Hg10 mi
4:00 PM81 °FPassing clouds.7 mph37%30.27 "HgN/A
3:00 PM81 °FPassing clouds.7 mph34%30.30 "HgN/A
2:00 PM79 °FPassing clouds.7 mph42%30.30 "HgN/A
1:00 PM75 °FPassing clouds.6 mph50%30.33 "HgN/A
12:00 PM72 °FPassing clouds.8 mph65%30.36 "HgN/A
11:00 AM70 °FPassing clouds.6 mph69%30.36 "HgN/A
10:00 AM66 °FSunny.6 mph73%30.36 "Hg10 mi
9:00 AM59 °FSunny.2 mph88%30.36 "Hg10 mi
8:00 AM50 °FSunny.2 mph94%30.33 "Hg10 mi
7:00 AM46 °FClear.No wind93%30.33 "Hg10 mi
6:00 AM48 °FClear.2 mph94%30.33 "Hg10 mi
5:00 AM48 °FClear.1 mph94%30.30 "Hg10 mi
4:00 AM48 °FClear.No wind94%30.30 "Hg10 mi
3:00 AM54 °FClear.No wind88%30.33 "Hg10 mi
Weather by CustomWeather, © 2015

See weather overviewHow to use our weather pages